Location: Hilina Pali Trail
(19.2864°N, 155.2806°W)
Time: 21:14:07
(UTC+00:00)

Daily predictions for brighter satellites

Satellite Brightness Start Highest point End
(mag) Time Altitude Azimuth Time Altitude Azimuth Time Altitude Azimuth
CZ-3C R/B 3.7 13:20:28 72° SE 13:20:28 72° SE 14:10:17 10° E
H-II Stage 2 4.3 13:41:36 70° NE 13:41:36 70° NE 19:26:00 10° ESE
CZ-3C R/B 3.0 13:52:12 78° NE 13:52:12 78° NE 22:31:48 10° SE
Cosmos 2278 Rocket 4.2 14:14:03 19° S 14:14:03 19° S 14:15:31 10° S
USA 215 3.4 14:05:37 10° NE 14:11:35 68° E 14:11:35 68° E
Skynet4D Del rocket 4.4 14:35:54 40° NNE 14:35:54 40° NNE 14:39:38 10° ENE
Cosmos 1300 Rocket 4.0 14:45:18 10° S 14:49:39 60° E 14:51:45 29° NNE
Cosmos 2181 Rocket 4.0 14:53:24 57° W 14:53:32 57° W 14:59:37 10° S
Centaur AC-116 3.6 14:58:20 49° N 14:58:34 50° N 15:01:24 10° E
DASH 4.0 15:01:13 23° NNE 15:01:13 23° NNE 15:04:22 10° ENE
SL-08 ROCKET BODY 4.4 14:55:35 10° SSW 15:01:23 51° W 15:01:41 51° WNW
Cosmos 1633 3.1 14:58:40 10° S 15:02:15 58° E 15:03:37 33° NNE
Atlas Centaur 2 3.6 14:55:51 11° SW 15:03:50 57° SSE 15:11:33 10° ENE
SWIFT 2.6 15:04:12 56° SSW 15:04:21 56° SSW 15:08:32 10° ESE
NOAA 6 4.1 14:59:41 10° NNE 15:04:48 76° ESE 15:09:56 10° S
Cosmos 2084 3.2 15:04:41 28° SSW 15:06:43 81° ESE 15:10:37 10° NNE
USA 229 DEB 3.6 15:06:43 10° SSW 15:13:32 71° WNW 15:20:25 10° NNE
USA 229 3.6 15:06:49 10° SSW 15:13:39 72° WNW 15:20:31 10° NNE
Cosmos 1238 Rocket 3.9 15:11:13 22° NNW 15:15:03 64° W 15:21:32 10° S
Cosmos 1536 3.2 15:14:23 10° S 15:18:17 62° E 15:22:14 10° NNE
Thor Agena Rocket 3.4 15:15:41 10° S 15:20:40 68° WSW 15:24:15 19° NNW
SJ-6F 4.4 15:23:06 10° N 15:27:04 53° WNW 15:31:02 10° SSW
Cosmos 1943 3.6 15:22:59 10° SW 15:28:09 38° WNW 15:33:21 10° N
CZ-3 R/B 2.3 15:12:03 12° WSW 15:30:01 64° NNW 15:35:04 10° ENE
Cosmos 2056 Rocket 3.6 15:27:06 10° N 15:32:12 75° ENE 15:37:17 10° SSE
Meteor 2-13 Rocket 4.4 15:26:22 10° SSW 15:32:27 66° W 15:38:34 10° N
IUS-13 SRM-1 1.7 15:34:00 44° NNW 15:34:02 44° NNW 15:35:53 10° NE
GPS 2-12 Rocket1 3.2 15:34:00 23° WSW 15:37:02 79° S 15:41:51 10° E
CZ-4 R/B 4.2 15:35:41 10° NE 15:38:36 20° E 15:41:29 10° SSE
Nadezhda 3 Rocket 4.3 15:32:58 10° N 15:39:18 74° E 15:45:38 10° S
Cosmos 962 Rocket 4.4 15:34:21 10° S 15:40:28 76° W 15:46:41 10° N
Ariane Rocket 2.9 15:37:37 10° N 15:42:41 85° WNW 15:47:44 10° SSW
Cosmos 1624 Rocket 4.0 15:40:07 10° NNW 15:45:23 70° WSW 15:50:41 10° S
Cosmos 1371 Rocket 4.3 15:46:12 11° NNW 15:51:01 45° WSW 15:55:57 10° S
Cosmos 1025 Rocket 4.0 15:48:44 10° N 15:52:57 51° E 15:57:08 10° SSE
Cosmos 921 Rocket 4.2 15:51:08 17° WNW 15:53:12 24° W 15:56:48 10° SSW
USA 215 4.3 15:49:55 10° N 15:54:37 22° NW 15:59:02 11° W
Cosmos 2341 Rocket 4.1 15:49:35 10° SSW 15:55:43 53° W 16:01:49 10° N
GPS 2-05 Rocket1 4.4 15:59:09 11° NNW 16:02:07 27° NNE 16:05:14 10° E
OAO 3 Rocket 4.0 15:58:49 10° SW 16:03:36 55° SE 16:08:26 10° ENE
DELTA 2 R/B (1) 4.5 16:00:50 13° WNW 16:05:15 35° SW 16:10:14 10° SSE
Cosmos 1544 Rocket 3.5 16:02:27 10° S 16:06:47 87° W 16:11:08 10° N
IRS-1A Rocket 4.4 16:04:50 10° NNE 16:10:38 89° WNW 16:16:32 10° SSW
COSMO-SKYMED 1 2.8 16:08:25 10° S 16:12:38 52° W 16:16:51 10° NNW
SMAP 4.2 16:08:59 10° NNE 16:13:29 48° E 16:17:57 10° S
Cosmos 1340 4.1 16:10:55 10° N 16:14:30 41° E 16:18:05 10° SSE
Meteor 2-19 Rocket 4.4 16:08:59 10° S 16:15:07 76° W 16:21:13 10° N
Cosmos 1452 Rocket 3.6 16:16:03 10° NNW 16:21:20 89° ENE 16:26:36 10° SSE
IDEFIX/ARIANE 42P 3.2 16:16:48 10° NNE 16:21:57 64° ESE 16:27:07 10° S
Centaur AC-112 2.9 16:22:29 10° WNW 16:25:30 23° NNW 16:27:20 10° NE
Skynet4D Del rocket 4.3 16:22:25 10° WNW 16:27:22 36° N 16:32:20 10° ENE
